Total_Precipitation_Accumulation
0.06 0.10 0.16 0.20 0.18 0.14 0.10 0.08 0.12 0.20 0.38 0.48 0.60 0.69 0.72 0.72 0.67 0.64 0.64 0.61 0.52 0.51 0.57 0.69 0.83 0.90 1.01 1.09 1.27 1.32 1.50 1.65 1.70 1.80 1.83 1.86 1.96 1.98 1.91 1.91 1.94 2.11 2.16 2.16
0.05 0.08 0.12 0.15 0.18 0.13 0.10 0.09 0.09 0.19 0.41 0.51 0.56 0.62 0.72 0.70 0.69 0.68 0.64 0.61 0.61 0.65 0.68 0.71 0.77 0.86 0.93 1.02 1.23 1.43 1.71 2.02 2.05 2.07 2.07 2.15 2.32 2.39 2.29 2.24 2.33 2.36 2.29 2.23
0.08 0.11 0.12 0.17 0.17 0.15 0.16 0.15 0.18 0.27 0.39 0.47 0.54 0.64 0.85 0.84 0.78 0.79 0.79 0.78 0.80 0.90 0.89 0.86 0.87 0.91 1.00 1.11 1.30 1.58 1.87 2.12 2.25 2.30 2.32 2.39 2.48 2.50 2.44 2.53 2.69 2.71 2.60 2.42
0.13 0.18 0.24 0.21 0.22 0.21 0.25 0.27 0.31 0.39 0.42 0.56 0.76 0.87 1.03 1.08 0.94 0.92 0.85 0.80 0.87 1.01 1.06 1.02 1.01 1.08 1.22 1.40 1.63 1.91 2.12 2.25 2.35 2.36 2.38 2.41 2.45 2.37 2.40 2.53 2.61 2.64 2.58 2.45
0.24 0.27 0.27 0.31 0.34 0.36 0.41 0.54 0.53 0.61 0.68 0.79 0.90 0.89 0.98 0.92 0.82 0.83 0.82 0.87 0.94 1.04 1.16 1.22 1.25 1.35 1.43 1.57 1.78 2.01 2.17 2.19 2.18 2.27 2.35 2.38 2.39 2.43 2.47 2.47 2.35 2.25 2.21 2.22
0.37 0.40 0.44 0.48 0.50 0.46 0.54 1.01 1.01 0.97 0.91 0.87 0.94 1.16 1.15 0.93 0.84 0.86 0.89 0.90 0.99 1.02 1.09 1.21 1.33 1.36 1.46 1.65 1.86 2.06 2.21 2.23 2.19 2.26 2.35 2.39 2.45 2.50 2.46 2.36 2.27 2.20 2.10 2.11
0.54 0.58 0.56 0.53 0.49 0.50 0.88 1.23 1.15 1.12 1.15 1.07 1.14 1.22 1.19 1.07 1.05 1.00 0.98 0.99 0.99 1.06 1.11 1.16 1.29 1.39 1.50 1.64 1.78 1.92 2.07 2.17 2.26 2.39 2.46 2.48 2.52 2.48 2.41 2.29 2.29 2.27 2.18 2.10
0.72 0.91 0.98 0.68 0.57 0.82 1.12 1.01 1.15 1.27 1.26 1.24 1.18 1.10 1.12 1.13 1.12 1.09 1.04 1.05 1.06 1.13 1.26 1.33 1.41 1.46 1.55 1.56 1.65 1.81 1.86 1.98 2.03 2.15 2.27 2.28 2.36 2.30 2.31 2.26 2.19 2.12 2.02 1.92
0.99 1.13 0.96 0.79 0.81 0.90 0.96 1.04 1.14 1.29 1.37 1.31 1.32 1.24 1.10 1.10 1.07 1.24 1.31 1.24 1.19 1.17 1.25 1.33 1.43 1.53 1.62 1.60 1.57 1.62 1.72 1.85 1.95 2.02 2.18 2.24 2.26 2.19 2.12 2.07 1.98 1.89 1.80 1.72
1.21 1.28 1.13 1.03 1.00 0.94 0.94 1.01 1.10 1.25 1.35 1.43 1.39 1.22 1.12 1.06 1.03 1.03 1.07 1.07 1.12 1.14 1.20 1.38 1.37 1.43 1.54 1.61 1.60 1.64 1.72 1.75 1.84 1.91 2.01 2.19 2.21 2.08 1.96 1.84 1.76 1.74 1.70 1.71
1.41 1.44 1.24 1.13 1.08 1.15 1.15 1.11 1.11 1.18 1.24 1.31 1.26 1.17 1.16 1.11 1.03 1.00 0.96 0.94 0.96 1.01 1.05 1.14 1.17 1.22 1.31 1.42 1.48 1.46 1.43 1.40 1.42 1.55 1.72 1.90 1.94 1.89 1.72 1.62 1.70 1.73 1.69 1.67
1.58 1.39 1.40 1.41 1.32 1.33 1.43 1.40 1.33 1.32 1.39 1.36 1.21 1.13 1.09 1.00 0.94 0.90 0.84 0.79 0.84 0.87 0.90 0.94 1.01 1.11 1.22 1.39 1.52 1.52 1.41 1.31 1.29 1.30 1.40 1.60 1.81 1.88 1.74 1.53 1.56 1.50 1.44 1.39
1.41 1.32 1.43 1.47 1.50 1.57 1.71 1.63 1.53 1.50 1.43 1.27 1.21 1.12 1.01 0.94 0.85 0.80 0.74 0.73 0.80 0.88 0.96 1.04 1.02 0.98 1.03 1.19 1.35 1.45 1.42 1.37 1.31 1.27 1.31 1.43 1.66 1.89 1.94 1.71 1.49 1.36 1.20 1.08
1.38 1.42 1.61 1.64 1.70 1.73 1.72 1.71 1.66 1.66 1.53 1.38 1.25 1.12 1.05 1.05 0.99 0.89 0.82 0.87 0.97 1.06 1.12 1.13 1.10 1.07 1.03 1.11 1.22 1.29 1.33 1.32 1.21 1.18 1.24 1.36 1.59 1.87 2.04 1.98 1.77 1.49 1.20 1.01
1.55 1.55 1.59 1.56 1.65 1.66 1.69 1.74 1.67 1.72 1.67 1.57 1.37 1.17 1.05 1.00 1.00 0.97 0.95 1.03 1.18 1.22 1.17 1.13 1.10 1.08 1.03 1.03 1.10 1.18 1.25 1.26 1.22 1.20 1.23 1.27 1.50 1.79 2.00 2.05 1.94 1.73 1.37 1.08
1.70 1.63 1.49 1.49 1.68 1.68 1.66 1.67 1.57 1.62 1.67 1.58 1.44 1.30 1.22 1.18 1.13 1.07 1.09 1.18 1.34 1.37 1.25 1.17 1.15 1.11 1.08 1.05 1.03 1.05 1.11 1.13 1.04 1.03 1.08 1.11 1.21 1.42 1.69 1.87 1.84 1.74 1.48 1.06
1.67 1.77 1.71 1.68 1.75 1.77 1.69 1.56 1.50 1.55 1.59 1.61 1.57 1.45 1.40 1.39 1.38 1.36 1.37 1.42 1.48 1.45 1.28 1.15 1.08 1.02 0.99 1.05 1.10 1.07 1.06 1.05 0.97 0.88 0.93 1.00 1.09 1.29 1.56 1.75 1.71 1.60 1.43 1.09
1.46 1.49 1.51 1.60 1.74 1.80 1.67 1.49 1.42 1.42 1.45 1.53 1.56 1.52 1.55 1.60 1.64 1.69 1.65 1.58 1.47 1.30 1.13 1.04 0.97 0.92 0.89 0.86 0.87 0.86 0.87 0.90 0.87 0.85 0.92 0.97 1.01 1.20 1.46 1.61 1.54 1.45 1.37 1.18
1.35 1.36 1.39 1.42 1.52 1.55 1.46 1.42 1.37 1.24 1.18 1.24 1.32 1.37 1.43 1.48 1.56 1.69 1.65 1.66 1.66 1.47 1.17 0.97 0.98 0.88 0.86 0.83 0.82 0.78 0.74 0.75 0.75 0.76 0.81 0.89 1.01 1.19 1.34 1.39 1.37 1.36 1.23 1.10
1.44 1.42 1.41 1.47 1.47 1.40 1.29 1.22 1.26 1.18 1.18 1.24 1.16 1.15 1.21 1.26 1.36 1.56 1.61 1.68 1.67 1.49 1.24 1.04 0.88 0.79 0.73 0.69 0.70 0.72 0.77 0.82 0.84 0.87 0.90 1.01 1.11 1.21 1.26 1.23 1.18 1.16 1.14 1.14
1.35 1.37 1.29 1.38 1.37 1.24 1.16 1.07 1.12 1.10 1.13 1.13 1.04 1.00 1.03 1.05 1.13 1.34 1.64 1.83 1.59 1.28 1.09 1.01 0.84 0.71 0.64 0.65 0.65 0.63 0.70 0.79 0.87 0.99 1.05 1.11 1.16 1.20 1.20 1.17 1.09 1.05 1.06 1.11
1.25 1.24 1.21 1.23 1.24 1.18 1.01 0.96 1.00 1.01 0.99 0.91 0.83 0.87 0.91 0.98 1.07 1.20 1.38 1.62 1.59 1.44 1.08 0.87 0.76 0.70 0.68 0.69 0.64 0.66 0.71 0.72 0.79 0.87 0.92 0.99 1.11 1.20 1.20 1.12 1.02 1.00 1.03 1.07
1.31 1.17 1.15 1.17 1.21 1.13 0.98 0.92 0.93 0.99 0.90 0.83 0.82 0.84 0.87 0.94 1.03 1.27 1.41 1.30 1.32 1.43 1.16 0.97 0.95 0.87 0.74 0.68 0.67 0.68 0.70 0.74 0.84 0.89 0.89 0.91 0.92 0.97 1.01 0.98 0.98 0.98 1.01 0.98
1.32 1.19 1.10 1.05 1.06 1.04 1.02 0.92 0.85 0.90 0.85 0.75 0.71 0.71 0.75 0.87 0.91 1.00 1.16 1.24 1.24 1.26 1.09 1.01 0.94 0.80 0.70 0.65 0.72 0.77 0.84 0.92 0.92 0.87 0.81 0.81 0.81 0.80 0.83 0.82 0.80 0.85 0.89 0.91
1.27 1.16 1.05 0.97 0.99 0.97 0.93 0.86 0.82 0.83 0.75 0.72 0.71 0.71 0.70 0.75 0.90 1.00 1.03 1.05 1.16 1.20 1.08 1.01 0.87 0.79 0.70 0.69 0.79 0.91 0.93 0.83 0.78 0.74 0.72 0.73 0.77 0.80 0.78 0.82 0.86 0.83 0.82 0.84
1.16 1.09 1.03 0.94 0.92 0.89 0.83 0.81 0.85 0.84 0.74 0.75 0.78 0.73 0.70 0.74 0.82 0.89 0.95 0.96 0.99 1.10 1.04 0.90 0.74 0.71 0.72 0.77 0.82 0.87 0.83 0.74 0.68 0.68 0.67 0.70 0.75 0.81 0.81 0.85 0.88 0.84 0.83 0.85
1.07 1.03 1.03 0.99 0.93 0.87 0.84 0.85 0.89 0.93 0.89 0.88 0.90 0.90 0.88 0.87 0.88 0.93 0.94 0.94 0.93 0.90 0.84 0.74 0.65 0.64 0.64 0.66 0.69 0.71 0.70 0.70 0.67 0.67 0.70 0.73 0.77 0.80 0.76 0.75 0.75 0.75 0.75 0.73